Regional Weather Roundup
Issued by NWS Newport/Morehead, NC

Current Version | Previous Version | Graphics & Text | Print | Product List | Glossary Off
Versions: 1 2 3 4 5 6 7 8 9 10 11 12 13 14 15 16 17 18 19 20 21 22 23 24 25 26 27 28 29 30 31 32 33 34 35 36 37 38 39 40 41 42 43 44 45 46 47 48 49 50

000
ASUS42 KMHX 051212
RWRMHX
WEATHER ROUNDUP FOR EASTERN NORTH CAROLINA
NATIONAL WEATHER SERVICE NEWPORT/MOREHEAD CITY NC
700 AM EST THU MAR 05 2015

NOTE: "FAIR" INDICATES FEW OR NO CLOUDS BELOW 12,000 FEET
WITH NO SIGNIFICANT WEATHER AND/OR OBSTRUCTIONS TO VISIBILITY

NCZ015>017-031-032-045>047-102-103-051300-
NORTH COAST

CITY           SKY/WX    TMP DP  RH WIND       PRES   REMARKS
EDENTON        CLOUDY    62  60  94 N3        29.92R
ELIZABETH CITY CLOUDY    48  46  93 N13       29.96R
KITTY HAWK     CLOUDY    63  63 100 SW6G20    29.91R
MANTEO         CLOUDY    61  59  94 SW15      29.92R

$$

NCZ045>047-081-094-103-104-051300-
CENTRAL COAST

CITY           SKY/WX    TMP DP  RH WIND       PRES   REMARKS
FRISCO         FOG       59  59 100 SW14      29.96S VSB 1/2
SWANQUARTER      N/A     57 N/A N/A S18G26    29.88S

$$

NCZ095-097-098-100-101-051300-
SOUTHERN COAST

CITY           SKY/WX    TMP DP  RH WIND       PRES   REMARKS
BEAUFORT       FOG       60  60 100 SW18G28   29.97S VSB 1/4
CEDAR ISLAND     N/A     64 N/A N/A SW18G31   30.00R
JACKSONVILLE   CLEAR     64  60  87 S6        29.96R
PINEY ISLAND     N/A    N/A N/A N/A MISG      29.96S
WILMINGTON     CLEAR     62  60  93 S10       29.98S


$$

NCZ011>013-027>030-043-044-078>080-089-090>093-098-051300-
COASTAL PLAIN

CITY           SKY/WX    TMP DP  RH WIND       PRES   REMARKS
AHOSKIE        CLOUDY    49  48  97 N14       29.95R
CLINTON        PTCLDY    66  63  87 S6        29.92F
ELIZABETHTOWN  CLEAR     65  61  87 S6        29.94S
GOLDSBORO      PTCLDY    66  66  99 S12       29.88S
GREENVILLE     PTCLDY    64  63  94 SW8       29.93R
HAVELOCK       CLEAR     64  60  87 SW18      29.97R
KENANSVILLE    CLEAR     64  61  90 S3        29.94R
KINSTON        PTCLDY    66  63  88 S12       29.92R
NEW BERN       CLEAR     64  61  90 S10       29.95S
RICHLANDS      CLEAR     63  57  82 S10       29.96R
ROCKY MOUNT    MOCLDY    63  60  90 SW3       29.90R
WASHINGTON     CLEAR     66  62  87 S9        29.91S
WHITEVILLE       N/A     61  59  94 S6        29.95S

$$

AMZ130-135-150-152-154-156-158-170-250-252-270-ANZ085-086-088-633-658-670-051300-
MARINE OBSERVATIONS

STATION/POSITION TIME  TEMP    WIND        PRES    WAVE   SWELL
                       AIR SEA DIR/SP/G            HT/PER HT/PER
                 (UTC) (F)     (DEG/KT/KT) (MB)    (FT/S) (FT/S)
CHESAPEAKE LIGHT 1100   39      20/ 21/ 23 1014.6
64 E VA BEACH    1150   51 51  360/  6/  8 1013.0    5/ 6   5/ 6
DUCK             1100      35  350/ 11/ 12 1012.4
2 E DUCK         1111      36                N/A     3/10   2/11
10 NE DUCK       1122      38                N/A     4/ 7   2/11
OREGON INLET     1100   52 49  200/ 19/ 22 1013.4
HATTERAS CG      1100   60 49  220/ 11/ 16 1014.8
CAPE LOOKOUT     1200   61     220/ 15/ 20 1015.0
BEAUFORT LAB     1100   60 47  220/ 13/ 17 1013.8
27 SE WRIGHTSVLE NOT AVBL
5 SE WRIGHTSVLE  NOT AVBL
225 S CAPE HAT   1150   73 73  210/ 19/ 21 1020.3    6/ 6   3/10
41 SE CHARLESTON 1150   69 68  210/ 17/ 19 1015.9    6/ 7   3/10

$$



USA.gov is the U.S. government's official web portal to all federal, state and local government web resources and services.